Vertical_Velocity
-5 -0 -2 -5 -5 0 1 -3 1 8 -2 3 -2 -2 -3 -0 -3 -3 -2 1 -2 -2 0 -1 -2 2 1 1 -2 -2 -2 3 -0 8 -11 1 -4 -4 1 -3 1 -5 3
-2 2 -4 2 2 -2 -3 -2 0 -2 2 -0 3 2 -3 -0 -2 -3 -3 0 -4 -2 -2 -0 0 4 0 -4 -6 -4 4 6 -3 -7 11 2 -5 -3 4 0 -7 0 2
1 -1 3 -4 -4 -3 -7 -1 2 -1 -3 -1 0 -2 -2 -3 -4 -3 -3 -0 -2 -0 1 -2 2 2 -3 -2 -1 2 1 -6 2 -1 2 -9 4 -2 1 2 0 0 -4
6 4 -4 -4 -2 1 -1 -2 -2 1 2 3 -1 1 1 3 -2 -3 -3 -2 -2 -1 1 0 -2 -0 -1 -1 -3 1 3 -3 -1 -1 -2 5 -1 2 -3 3 12 -4 -8
-2 0 -6 -0 5 4 -6 -2 5 3 -3 -1 3 2 -1 1 -5 -4 -2 -1 -2 0 -1 -1 1 -0 -3 1 1 -4 -2 -2 -4 -1 -3 1 -1 1 -3 6 -3 -10 18
2 -5 5 6 2 -1 7 2 3 1 -1 -0 -3 -1 -3 -6 -11 -6 -2 -5 -3 -1 -1 1 2 -5 -0 2 -2 2 -3 -2 -6 5 -1 1 -1 -3 -5 -4 -5 8 -3
-2 3 0 0 -3 -1 8 -3 -2 0 8 -1 -2 -2 -3 -3 1 -1 1 2 3 3 4 4 -3 -3 -4 1 1 2 2 -0 -1 0 -7 0 8 1 5 -4 -4 2 -1
2 -1 -3 -1 1 3 -3 -7 -4 -1 -2 3 3 6 4 -4 -1 2 1 8 0 -1 -4 -2 -3 -0 -3 1 -0 1 2 -2 -1 -5 -7 -5 6 7 -5 -3 4 2 -6
-2 -4 -2 5 10 7 -4 3 22 12 3 2 1 -3 -3 11 14 4 5 1 3 -2 0 5 0 3 3 -4 5 -0 -2 -1 -1 4 -0 -3 -1 -1 5 -3 0 2 0
-3 8 5 -5 -5 -11 3 -4 1 -3 -1 -5 -5 -6 -2 -4 -6 4 21 10 7 4 8 3 -1 -4 -4 -1 2 2 -1 -4 -1 0 -10 -2 0 0 1 -2 2 -0 6
-2 3 2 1 3 6 0 -0 4 -2 -0 -5 -8 -10 -11 -8 -3 -6 1 4 4 -5 -0 -5 -4 -1 -1 -0 0 -3 -1 8 4 2 1 -1 -3 -1 -1 -1 4 0 -2
0 -1 -0 2 3 -2 -1 5 0 -1 2 0 2 19 -5 -9 -12 -14 -15 -8 16 9 -4 -1 -4 -6 0 -2 1 -3 -2 2 5 -1 5 0 1 -3 5 2 -2 -1 -4
2 1 0 0 -2 5 2 4 2 4 -1 -3 -7 4 11 -13 -1 -8 -9 -10 8 5 14 9 18 17 19 9 10 12 -4 4 -7 -4 3 1 5 -3 12 -4 1 -7 -9
2 5 1 3 5 3 6 2 -0 0 -1 -0 2 -3 10 12 14 -3 2 13 7 19 4 23 -1 -10 -3 5 7 -1 -1 2 -15 -10 -1 2 -4 6 -1 -2 4 -6 0
2 1 1 0 -1 1 -3 -0 -2 -6 1 -1 -6 -0 4 -3 -9 8 -4 3 -6 -14 5 5 4 -1 4 -1 -1 3 8 13 -19 0 -2 2 -3 -1 3 1 6 -7 -5
0 2 4 4 5 0 6 -3 -4 2 1 -3 1 2 7 -1 -2 1 6 10 7 8 4 12 -5 11 -1 -4 -0 -2 10 6 -9 6 -7 -1 -2 2 2 4 3 -14 2
-1 -3 1 -1 -2 3 7 2 11 -2 -1 1 0 8 11 7 3 9 6 -4 7 8 -2 1 -9 -13 -6 -25 -18 2 -0 5 7 -1 -3 1 0 -0 -2 5 -2 -5 2
-2 -2 -1 -2 -2 1 -2 -4 -0 1 1 -7 6 8 -1 3 6 3 10 16 11 18 5 -5 -3 9 -3 7 -6 -1 -12 -4 16 -7 -2 -0 1 -1 1 4 -5 2 1
-1 -2 -0 1 0 -1 -1 -2 -3 -3 -4 -3 -6 2 17 7 15 5 -3 -4 -2 4 7 8 8 14 8 8 23 -2 3 1 -1 -3 -1 1 -2 -1 3 -1 -2 -0 -0
-5 -5 -8 -3 -1 -2 -1 -1 -1 -3 2 -2 -5 -7 -13 -0 46 5 14 8 4 3 1 6 2 -13 -3 -3 4 1 2 5 -1 -3 2 -4 0 -0 1 -5 -0 6 -3
-2 7 -1 -2 1 -2 -0 -4 -2 2 2 4 5 2 -8 -11 -31 17 99 25 -2 5 -0 3 5 17 8 -3 5 2 3 -13 -5 3 0 2 -1 1 -4 2 2 -4 6
-2 -4 -1 -1 1 -4 -3 -1 3 4 3 1 -1 5 3 -7 -15 -42 -19 7 -0 4 2 -4 -6 -2 9 6 -5 -8 -11 -3 -1 -2 -4 1 0 -4 -3 1 -0 1 0
-6 -3 -3 -3 2 5 3 -2 -2 10 6 2 -2 2 2 -9 5 8 5 4 3 4 5 -2 8 -6 10 3 -5 -10 -5 -4 -3 0 3 0 -4 -0 -2 0 5 8 -1
2 10 -3 -0 -3 1 -2 1 -6 -7 -3 10 -11 1 16 -1 -1 1 14 10 7 20 -3 -6 5 7 -5 1 0 -6 -3 8 -1 -1 -1 -3 -3 0 -2 -0 -1 -1 -6
3 2 -3 -3 1 -1 0 -1 -5 2 -9 4 2 6 -1 4 1 2 -1 2 5 -7 7 3 -8 -3 3 -2 -2 -4 16 -10 -1 -1 -8 -3 -3 -2 -5 8 1 -1 -5
4 5 -0 2 -6 0 5 7 -2 3 -1 -7 5 2 3 2 2 8 6 3 2 13 5 3 4 2 3 3 2 4 -3 -2 -9 -4 -5 0 -3 -4 -4 -4 1 -2 2
Height
1494 1499 1504 1509 1514 1520 1523 1528 1532 1538 1542 1545 1547 1551 1554 1556 1559 1562 1565 1566 1567 1569 1570 1571 1573 1574 1578 1580 1581 1580 1579 1581 1583 1583 1582 1582 1581 1581 1582 1581 1582 1582 1583
1481 1487 1492 1499 1505 1509 1513 1519 1524 1529 1534 1537 1541 1544 1547 1550 1552 1555 1558 1560 1561 1563 1565 1567 1568 1570 1572 1575 1575 1574 1575 1579 1580 1579 1581 1580 1578 1578 1576 1576 1579 1580 1579
1472 1477 1483 1488 1494 1498 1503 1510 1515 1520 1524 1529 1532 1535 1538 1541 1545 1548 1551 1554 1555 1557 1559 1561 1564 1565 1566 1568 1568 1571 1572 1572 1573 1575 1576 1576 1576 1577 1577 1576 1574 1574 1575
1463 1467 1470 1475 1481 1487 1493 1499 1504 1509 1514 1519 1523 1527 1530 1534 1537 1540 1543 1546 1548 1550 1553 1555 1556 1558 1560 1562 1563 1565 1568 1569 1571 1571 1571 1573 1573 1573 1573 1575 1574 1570 1570
1453 1458 1459 1464 1471 1478 1482 1488 1494 1499 1504 1510 1514 1518 1522 1526 1528 1530 1533 1537 1540 1543 1545 1547 1549 1552 1554 1556 1559 1560 1562 1563 1567 1566 1567 1567 1568 1569 1570 1570 1567 1568 1568
1444 1445 1450 1455 1461 1465 1471 1477 1483 1488 1493 1499 1502 1506 1510 1513 1516 1520 1524 1528 1530 1533 1536 1539 1543 1544 1547 1549 1552 1554 1555 1557 1558 1562 1563 1563 1564 1563 1565 1564 1563 1563 1563
1433 1439 1444 1448 1450 1455 1462 1468 1472 1476 1482 1485 1489 1494 1497 1500 1504 1507 1511 1516 1519 1524 1528 1531 1533 1535 1537 1540 1543 1546 1547 1547 1550 1553 1555 1557 1558 1556 1556 1557 1558 1557 1557
1424 1429 1434 1438 1442 1448 1453 1455 1460 1465 1469 1474 1478 1482 1487 1490 1495 1499 1505 1510 1513 1515 1518 1521 1523 1525 1526 1532 1534 1536 1538 1540 1541 1545 1547 1550 1551 1551 1550 1550 1551 1551 1551
1414 1417 1422 1428 1435 1441 1443 1444 1450 1457 1461 1466 1473 1477 1479 1482 1485 1489 1495 1499 1501 1503 1505 1509 1513 1516 1518 1522 1525 1527 1530 1532 1534 1538 1541 1543 1544 1545 1545 1547 1547 1547 1548
1403 1407 1416 1421 1425 1429 1434 1440 1444 1449 1452 1458 1460 1463 1467 1471 1478 1484 1488 1491 1491 1493 1494 1496 1500 1504 1509 1515 1518 1520 1520 1523 1525 1528 1532 1535 1538 1539 1540 1541 1543 1544 1545
1402 1405 1408 1411 1415 1420 1426 1430 1433 1437 1443 1444 1448 1450 1454 1457 1461 1465 1471 1475 1477 1480 1485 1487 1489 1491 1496 1502 1506 1508 1511 1518 1520 1523 1524 1528 1531 1533 1535 1536 1538 1539 1542
1395 1398 1402 1405 1409 1412 1415 1420 1423 1427 1429 1432 1435 1436 1430 1441 1444 1446 1453 1456 1463 1470 1471 1476 1479 1478 1484 1490 1494 1497 1502 1510 1516 1520 1523 1522 1525 1528 1531 1531 1532 1534 1535
1388 1391 1395 1399 1401 1405 1406 1410 1415 1417 1420 1420 1423 1424 1422 1422 1426 1429 1434 1444 1451 1454 1467 1468 1470 1474 1479 1481 1487 1490 1491 1500 1508 1518 1520 1520 1522 1524 1527 1528 1526 1527 1528
1384 1387 1390 1394 1396 1398 1401 1403 1406 1409 1408 1409 1410 1410 1408 1412 1411 1413 1421 1427 1436 1444 1450 1452 1455 1469 1477 1481 1479 1485 1489 1494 1496 1512 1515 1516 1517 1520 1519 1522 1522 1523 1527
1381 1384 1387 1389 1390 1392 1393 1396 1397 1399 1401 1401 1402 1406 1406 1402 1400 1402 1406 1411 1415 1425 1436 1441 1446 1453 1466 1470 1479 1482 1486 1487 1487 1502 1507 1510 1510 1514 1515 1518 1517 1520 1523
1380 1383 1385 1387 1388 1388 1389 1389 1390 1391 1392 1393 1394 1395 1397 1397 1397 1397 1400 1402 1409 1408 1423 1430 1436 1433 1453 1457 1472 1474 1479 1481 1484 1492 1498 1503 1505 1509 1509 1510 1508 1514 1518
1376 1377 1380 1380 1383 1385 1385 1384 1384 1382 1384 1385 1384 1385 1386 1384 1385 1388 1393 1398 1400 1405 1411 1418 1423 1433 1438 1446 1451 1466 1475 1478 1481 1482 1492 1497 1500 1503 1505 1505 1503 1507 1510
1370 1371 1373 1374 1376 1378 1378 1378 1378 1376 1375 1374 1376 1376 1377 1379 1378 1384 1389 1392 1393 1398 1402 1402 1410 1406 1421 1434 1445 1446 1466 1474 1474 1476 1483 1490 1493 1498 1499 1498 1500 1504 1505
1371 1372 1373 1372 1371 1370 1371 1370 1370 1370 1369 1367 1365 1368 1367 1369 1368 1369 1376 1380 1384 1390 1397 1400 1406 1406 1419 1430 1437 1444 1456 1462 1466 1472 1478 1483 1487 1491 1492 1493 1496 1499 1499
1375 1372 1373 1374 1372 1371 1371 1368 1367 1367 1366 1364 1362 1361 1360 1361 1361 1346 1355 1362 1376 1386 1394 1398 1401 1409 1420 1430 1437 1443 1451 1456 1464 1471 1475 1478 1484 1486 1487 1487 1489 1493 1492
1376 1377 1373 1375 1374 1373 1372 1370 1371 1369 1369 1367 1365 1362 1358 1358 1368 1360 1340 1340 1364 1381 1389 1399 1407 1410 1418 1421 1432 1437 1445 1454 1464 1469 1471 1474 1477 1479 1482 1485 1485 1488 1488
1371 1374 1376 1377 1377 1374 1373 1374 1373 1371 1370 1367 1368 1365 1360 1361 1358 1360 1365 1371 1376 1379 1389 1395 1408 1415 1415 1414 1421 1431 1443 1452 1457 1463 1469 1471 1473 1475 1478 1480 1480 1482 1482
1376 1376 1377 1378 1379 1375 1372 1372 1373 1372 1366 1367 1368 1369 1367 1368 1371 1374 1378 1380 1382 1384 1392 1400 1410 1415 1418 1419 1422 1431 1441 1449 1454 1457 1460 1463 1467 1471 1473 1476 1479 1480 1480
1385 1383 1381 1382 1380 1378 1374 1372 1371 1371 1373 1369 1373 1376 1373 1374 1374 1376 1377 1380 1381 1386 1394 1404 1411 1415 1419 1420 1425 1431 1443 1446 1451 1453 1453 1458 1462 1464 1466 1468 1468 1469 1473
1389 1385 1381 1385 1386 1384 1380 1377 1376 1375 1378 1378 1379 1379 1381 1381 1382 1384 1386 1388 1391 1395 1400 1403 1409 1415 1419 1422 1425 1432 1438 1442 1445 1449 1451 1455 1457 1460 1464 1465 1464 1467 1470
1392 1387 1386 1387 1387 1388 1385 1383 1382 1382 1380 1384 1384 1383 1383 1384 1386 1390 1390 1394 1398 1401 1403 1406 1411 1415 1417 1421 1425 1428 1432 1435 1441 1444 1447 1450 1451 1455 1458 1461 1462 1466 1468